Regional Weather Roundup
Issued by NWS Goodland, KS

Home | Current Version | Previous Version | Graphics & Text | Print | Product List | Glossary On
Versions: 1 2 3 4 5 6 7 8 9 10 11 12 13 14 15 16 17 18 19 20 21 22 23 24 25 26 27 28 29 30 31 32 33 34 35 36 37 38 39 40 41 42 43 44 45 46 47 48 49 50
000
ASUS43 KGLD 271708
RWRGLD

GOODLAND FORECAST AREA HOURLY WEATHER ROUNDUP
NATIONAL WEATHER SERVICE GOODLAND KS
1100 AM MDT THU AUG 27 2015

...OFFICIAL OBSERVATIONS...

CITY           SKY/WX    TMP DP  RH WIND       PRES   REMARKS
GOODLAND KS    MOSUNNY   88  50  27 NW15      29.98S
HILL CITY KS   MOSUNNY   96  57  27 SW9       29.90S
IMPERIAL NEB   MOSUNNY   84  57  39 N13       29.92F
MCCOOK NEB     PTSUNNY   88  55  32 VRB5      29.89S
AKRON CO       PTSUNNY   85  50  29 NW22G35   30.07S
BURLINGTON CO  MOSUNNY   83  50  31 NW20      30.05R
LIMON CO       MOSUNNY   76  51  41 NW16      30.16R
$$

...UNOFFICIAL OBSERVATIONS...

CITY           SKY/WX    TMP DP  RH WIND       PRES   REMARKS
COLBY KS       SUNNY     88  55  33 W14G21    29.95S
GOVE KS          N/A     91  32  12 MISG        N/A
LENORA KS        N/A     90  32  12 MISG        N/A
NORTON KS      SUNNY     91  55  29 S13       29.88F
SHARON SPRINGS   N/A     86  56  35 W9G16       N/A
TRENTON NEB      N/A     82  32  16 W7          N/A
KIT CARSON CO    N/A     87  51  28 MISG        N/A
YUMA CO          N/A     82  55  38 NW17        N/A
$$


USA.gov is the U.S. government's official web portal to all federal, state and local government web resources and services.